Showing default

FENGYUN 3G, 56232

Orbit data source: Space-Track

FENGYUN 3G, 56232 is a payload satellite owned by CNMSC (CN) in LEO that was launched on Sun, 16 Apr 2023 UTC via a CHANG ZHENG 4B launch vehicle from the Jiuquan Satellite Launch Center, China (JSC). Payload-class satellites include a variety of spacecraft equipped with specific instruments for various scientific and technological missions. These include communications satellites like Starlink; space stations such as the ISS; scientific satellites like the Hubble; Earth observation satellites from companies like Planet Labs, Umbra, and HawkEye 360; GPS; miniature CubeSats for education and research; and military/defense satellites.

Loading next visibility...
Identifier
56232, 2023-055A
Orbit
LEO
Country
Flag of CNCN / PRC
Related business
Manufacturer
SISE
Mission
Operational Civil Weather
Bus & Motor
SAST-3000, Unknown motor
Mass
3,850 kg wet, 3,110 kg dry
Launch date (UTC)
2023-04-16 (3 years ago)
Launch vehicle
CHANG ZHENG 4B
Launch site
Jiuquan Satellite Launch Center, China (JSC)
Object type
Payload
Rocket body
Debris
Shape & HBR
Box + 2 Pan, 6.8 m
Radar Cross Section
27.688 m², Large (>1 m²)

Expand to show TLE details & history
Last TLE update: 6 hours ago

TLE from 6 hours ago
0 FENGYUN 3G
1 56232U 23055A   25355.59820326  .00026800  00000-0  40936-3 0  9999
2 56232  49.9916 181.7239 0009317 188.4553 171.6259 15.54132205152404
Epoch: 2025-12-21T14:21Z
TLE epoch observation values (Epoch: 2025-12-21T14:21:24.761Z)
Latitude
-0.00004°
Longitude
-124.03766°
Altitude
411.488 km
Speed
7.662 km/s
True Right ascension
12h 06m 53s
True Declination
0° 00' 00"
Sunlit
Object was in daylight at epoch
Visualization orbit readout
Latitude
Unknown
Longitude
Unknown
Altitude
Unknown
Speed
Unknown
Apparent Right ascension
Unknown
Apparent Declination
Unknown
Sunlit
N/A
Visualization observer readout
Local Sidereal Time
19:09:36
Azimuth
Unknown
Elevation
Unknown
Doppler factor
Unknown
Orbital elements
Apogee altitude
411.78 km
Perigee altitude
399.139 km
Semi-major axis
6,783.597 km
Eccentricity
0.00093
Inclination
49.9916°
RAAN
181.7239°
Arg. of periapsis
188.4553°
True anomaly
171.64143°
Mean anomaly
171.6259°
Eccentric anomaly
171.63367°
Mean motion
3.88466 °/min
Orbital period
92.67 mins
BSTAR
0.00040936
Loading maneuver chart data...
Computing Atmospheric mass density...
Loading historical data...
Loading historical data...
Loading historical data...
Loading historical data...
Loading historical data...
Loading historical data...
Loading historical data...
Other satellites on launch #55 in the year 2023 (2023-04-16 UTC)

Documentation

Showing up to 5 results
|